Nome, AK

10:48 AM AKDT on April 26, 2017 (GMT -0800)
Nome

Weather History for PAOM - October, 2012

Change the Weather History Date:

Thursday, October 4, 2012

  Actual Average Record
Temperature  
Mean Temperature 44 °F 34 °F  
Max Temperature 46 °F 40 °F 54 °F (1979)
Min Temperature 42 °F 29 °F 12 °F (1919)
Degree Days  
Heating Degree Days 21 31  
Month to date heating degree days 98 120  
Since 1 July heating degree days 1752 1646  
Cooling Degree Days 0 0  
Month to date cooling degree days 0 0  
Year to date cooling degree days 0 3  
Moisture  
Dew Point 41 °F    
Average Humidity 0    
Maximum Humidity 0    
Minimum Humidity 0    
Precipitation  
Precipitation 0.17 in 0.06 in 1.88 in (1957)
Month to date precipitation 0.97 0.26  
Year to date precipitation 17.72 13.16  
Snow  
Snow 0.00 in 0.10 in 1.50 in (1971)
Month to date snowfall 0.2 0.3  
Since 1 July snowfall 0.5 0.9  
Since 1 September snowfall 0.5 0.9  
Snow Depth 0.00 in    
Sea Level Pressure  
Sea Level Pressure 29.47 in    
Wind  
Wind Speed 20 mph (East)    
Max Wind Speed 31 mph    
Max Gust Speed 40 mph    
Visibility 8 miles    
Events Rain    
T = Trace of Precipitation, MM = Missing Value Source: NWS Daily Summary

Daily Weather History Graph

Daily Weather History Graph

Search for Another Location

Airport or City:

Trip Planner

Search our weather history database for the weather conditions in past years. The results will help you decide how hot, cold, wet, or windy it might be!

Date:

Astronomy

Oct. 04, 2012 Rise Set
Actual Time 9:22 AM AKDT 8:16 PM AKDT
Civil Twilight 8:33 AM AKDT 9:04 PM AKDT
Nautical Twilight 7:37 AM AKDT 10:01 PM AKDT
Astronomical Twilight 6:37 AM AKDT 11:00 PM AKDT
Moon 9:05 PM AKDT (10/4) 3:45 PM AKDT (10/4)
Length of Visible Light 12h 31m
Length of Day
10h 54m
Waning Gibbous, 81% of the Moon is Illuminated
Oct 4
Waning Gibbous
Oct 7
Last Quarter
Oct 15
New
Oct 21
First Quarter
Oct 29
Full

Hourly Weather History & Observations

Time (AKDT) Temp. Windchill Dew Point Humidity Pressure Visibility Wind Dir Wind Speed Gust Speed Precip Events Conditions
12:53 AM 46.0 °F 39.3 °F 37.9 °F 73% 29.56 in 10.0 mi ENE 16.1 mph 25.3 mph 0.00 in Rain Light Rain
1:53 AM 46.0 °F 38.5 °F 37.9 °F 73% 29.53 in 10.0 mi ENE 19.6 mph 28.8 mph 0.00 in   Overcast
2:29 AM 46.4 °F 38.1 °F 39.2 °F 76% 29.52 in 10.0 mi ENE 24.2 mph 28.8 mph 0.00 in Rain Light Rain
2:53 AM 46.0 °F 37.6 °F 39.0 °F 76% 29.51 in 10.0 mi ENE 24.2 mph 32.2 mph 0.00 in Rain Light Rain
3:53 AM 44.1 °F 35.7 °F 41.0 °F 89% 29.48 in 5.0 mi East 20.7 mph 28.8 mph 0.00 in Rain Light Rain
4:51 AM 42.8 °F 34.0 °F 42.8 °F 100% 29.44 in 4.0 mi East 20.7 mph 27.6 mph 0.04 in Rain Light Rain
4:53 AM 43.0 °F 34.2 °F 42.1 °F 97% 29.45 in 4.0 mi East 20.7 mph 27.6 mph 0.04 in Rain Light Rain
5:32 AM 42.8 °F 33.5 °F 42.8 °F 100% 29.43 in 3.0 mi East 23.0 mph 28.8 mph 0.01 in Rain Light Rain
5:41 AM 42.8 °F 34.0 °F 42.8 °F 100% 29.44 in 2.5 mi East 20.7 mph 26.5 mph 0.02 in Rain Light Rain
5:51 AM 42.8 °F 34.3 °F 42.8 °F 100% 29.43 in 3.0 mi East 19.6 mph 29.9 mph 0.03 in Rain Rain
5:53 AM 43.0 °F 34.5 °F 42.1 °F 97% 29.43 in 3.0 mi East 19.6 mph 27.6 mph 0.03 in Rain Rain
6:24 AM 42.8 °F 34.3 °F 42.8 °F 100% 29.43 in 7.0 mi East 19.6 mph 28.8 mph 0.03 in Rain Light Rain
6:43 AM 42.8 °F 34.5 °F 42.8 °F 100% 29.42 in 7.0 mi East 18.4 mph 27.6 mph 0.03 in Rain Light Rain
6:53 AM 44.1 °F 35.9 °F 43.0 °F 96% 29.42 in 7.0 mi East 19.6 mph 27.6 mph 0.04 in Rain Light Rain
7:53 AM 44.1 °F 36.5 °F 43.0 °F 96% 29.42 in 7.0 mi East 17.3 mph 26.5 mph 0.02 in Rain Light Rain
8:49 AM 44.6 °F 36.9 °F 42.8 °F 93% 29.41 in 10.0 mi East 18.4 mph - 0.00 in   Overcast
8:53 AM 45.0 °F 37.4 °F 43.0 °F 93% 29.41 in 10.0 mi East 18.4 mph - 0.00 in   Overcast
9:42 AM 44.6 °F 36.9 °F 42.8 °F 93% 29.41 in 10.0 mi East 18.4 mph 24.2 mph 0.00 in Rain Light Rain
9:53 AM 45.0 °F 38.2 °F 43.0 °F 93% 29.41 in 10.0 mi East 15.0 mph - 0.01 in Rain Light Rain
10:53 AM 46.0 °F 38.8 °F 44.1 °F 93% 29.42 in 10.0 mi ESE 18.4 mph - 0.01 in Rain Light Rain
11:32 AM 46.4 °F 39.0 °F 44.6 °F 93% 29.43 in 8.0 mi ESE 19.6 mph 25.3 mph 0.02 in Rain Light Rain
11:53 AM 45.0 °F 37.4 °F 44.1 °F 97% 29.43 in 10.0 mi ESE 18.4 mph 25.3 mph 0.02 in Rain Light Rain
12:53 PM 44.1 °F 36.2 °F 42.1 °F 93% 29.47 in 10.0 mi SE 18.4 mph - 0.00 in   Overcast
1:30 PM 42.8 °F 36.6 °F 39.2 °F 87% 29.49 in 10.0 mi SE 11.5 mph - N/A   Overcast
1:53 PM 44.1 °F 37.4 °F 41.0 °F 89% 29.50 in 10.0 mi ESE 13.8 mph - N/A   Overcast
2:53 PM 45.0 °F 38.2 °F 39.9 °F 82% 29.50 in 10.0 mi ESE 15.0 mph - N/A   Partly Cloudy
3:53 PM 45.0 °F 38.2 °F 39.9 °F 82% 29.52 in 10.0 mi ESE 15.0 mph - N/A   Scattered Clouds
4:53 PM 45.0 °F 37.6 °F 41.0 °F 86% 29.52 in 10.0 mi ESE 17.3 mph 26.5 mph N/A   Overcast
5:53 PM 45.0 °F 37.6 °F 39.9 °F 82% 29.52 in 10.0 mi ESE 17.3 mph - N/A   Overcast
6:53 PM 45.0 °F 36.6 °F 39.9 °F 82% 29.50 in 10.0 mi ESE 21.9 mph 33.4 mph 0.00 in Rain Light Rain
7:53 PM 43.0 °F 35.7 °F 37.9 °F 82% 29.50 in 10.0 mi ESE 15.0 mph - 0.00 in   Mostly Cloudy
8:53 PM 43.0 °F 34.5 °F 39.0 °F 86% 29.50 in 10.0 mi ESE 19.6 mph 29.9 mph N/A   Overcast
9:53 PM 43.0 °F 33.5 °F 37.9 °F 82% 29.51 in 10.0 mi ESE 24.2 mph 31.1 mph N/A   Mostly Cloudy
10:53 PM 43.0 °F 33.8 °F 37.9 °F 82% 29.51 in 10.0 mi ESE 23.0 mph 31.1 mph N/A   Mostly Cloudy
11:53 PM 43.0 °F 33.3 °F 37.9 °F 82% 29.51 in 10.0 mi ESE 25.3 mph 33.4 mph N/A   Overcast